M.P.E.C. 2004-A07 Issued 2004 Jan. 3, 16:12 UT The Minor Planet Electronic Circulars contain information on unusual minor planets and routine data on comets. They are published on behalf of Commission 20 of the International Astronomical Union by the Minor Planet Center, Smithsonian Astrophysical Observatory, Cambridge, MA 02138, U.S.A. Supported in part by the Steven and Michele Kirsch Foundation Prepared using the Tamkin Foundation Computer Network MPC@CFA.HARVARD.EDU URL http://cfa-www.harvard.edu/iau/mpc.html ISSN 1523-6714 COMET C/2003 T2 (LINEAR) Observations: CK03T020 C2003 12 06.40352 01 40 30.84 +41 21 49.8 EA007349 CK03T020 C2003 12 06.40593 01 40 30.78 +41 21 36.5 15.7 T EA007349 CK03T020 C2003 12 12.67079 01 39 23.29 +32 24 51.1 15.2 T EA007349 CK03T020 C2003 12 12.67300 01 39 23.21 +32 24 38.9 EA007349 CK03T020 C2003 12 12.67491 01 39 23.31 +32 24 29.1 EA007349 CK03T020 C2003 12 12.67691 01 39 23.25 +32 24 21.4 EA007349 CK03T020 C2003 12 14.99038 01 39 31.80 +29 21 56.1 16.3 N EA007J97 CK03T020 C2003 12 16.99090 01 39 50.95 +26 52 14.9 16.5 N EA007945 CK03T020 C2003 12 16.99309 01 39 50.99 +26 52 04.8 16.5 N EA007945 CK03T020 C2003 12 16.99519 01 39 51.03 +26 51 56.4 16.8 N EA007945 CK03T020 C2003 12 17.03851 01 39 51.97 +26 48 47.0 17.4 T EA007H41 CK03T020 C2003 12 17.04080 01 39 52.16 +26 48 37.5 17.4 T EA007H41 CK03T020 C2003 12 17.04322 01 39 52.08 +26 48 26.5 17.4 T EA007H41 CK03T020 C2003 12 17.04492 01 39 52.02 +26 48 18.9 17.3 T EA007H41 CK03T020 C2003 12 17.04672 01 39 52.08 +26 48 09.9 17.4 T EA007H41 CK03T020 C2003 12 18.14052 01 40 06.62 +25 29 45.2 18.0 T EA007704 CK03T020 C2003 12 18.15364 01 40 06.67 +25 28 49.2 18.4 T EA007704 CK03T020 C2003 12 18.16677 01 40 06.92 +25 27 54.5 18.2 T EA007704 CK03T020 C2003 12 18.18080 01 40 07.20 +25 26 57.4 18.2 T EA007704 CK03T020 C2003 12 18.19403 01 40 07.33 +25 26 00.8 18.2 T EA007704 CK03T020 C2003 12 18.26245 01 40 07.86 +25 21 05.7 16.4 T EA007H41 CK03T020 C2003 12 18.26522 01 40 07.82 +25 20 53.0 16.4 T EA007H41 CK03T020 C2003 12 18.26866 01 40 07.80 +25 20 37.5 16.4 T EA007H41 CK03T020 C2003 12 18.84215 01 40 17.16 +24 40 32.9 17.1 N EA007A18 CK03T020 C2003 12 18.98052 01 40 19.70 +24 31 02.0 18.5 T EA007H72 CK03T020 C2003 12 18.98215 01 40 19.83 +24 30 56.0 19.2 T EA007H72 CK03T020 C2003 12 18.98352 01 40 19.96 +24 30 50.4 18.5 T EA007H72 CK03T020 C2003 12 19.03756 01 40 20.19 +24 27 02.3 16.7 N EA007A32 CK03T020 C2003 12 19.04204 01 40 20.25 +24 26 42.5 17.0 N EA007A32 CK03T020 C2003 12 19.04654 01 40 20.31 +24 26 23.8 16.8 N EA007A32 CK03T020 C2003 12 19.05159 01 40 20.41 +24 26 02.8 16.8 N EA007A32 CK03T020 C2003 12 19.09663 01 40 21.40 +24 23 01.2 18.3 N EA007H41 CK03T020 C2003 12 19.10025 01 40 21.44 +24 22 46.7 18.3 N EA007H41 CK03T020 C2003 12 19.10207 01 40 21.46 +24 22 39.6 16.7 T EA007H41 CK03T020 C2003 12 19.10413 01 40 21.54 +24 22 30.4 16.7 T EA007H41 CK03T020 C2003 12 19.10696 01 40 21.52 +24 22 19.5 16.7 T EA007H41 CK03T020 C2003 12 20.00090 01 40 37.42 +23 21 36.9 18.7 T EA007H72 CK03T020 C2003 12 20.00234 01 40 37.59 +23 21 29.1 18.5 T EA007H72 CK03T020 C2003 12 20.00378 01 40 37.48 +23 21 24.0 20.1 T EA007H72 CK03T020 C2003 12 20.00524 01 40 37.67 +23 21 19.6 18.4 T EA007H72 CK03T020 C2003 12 20.09898 01 40 39.26 +23 15 00.3 17.0 T EA007750 CK03T020 C2003 12 20.10071 01 40 39.18 +23 14 53.1 17.9 T EA007750 CK03T020 C2003 12 20.11041 01 40 39.32 +23 14 13.9 18.2 T EA007750 CK03T020 C2003 12 21.59753 01 41 09.14 +21 37 02.7 EA007349 CK03T020 C2003 12 21.60060 01 41 09.24 +21 36 50.7 15.5 T EA007349 CK03T020 C2003 12 22.21617 01 41 23.02 +20 57 53.0 19.0 T EA007333 CK03T020 C2003 12 22.21882 01 41 23.10 +20 57 43.4 18.7 T EA007333 CK03T020 C2003 12 22.22132 01 41 23.10 +20 57 33.5 19.8 T EA007333 CK03T020 C2003 12 22.91857 01 41 39.53 +20 14 17.2 16.7 N EA007A32 CK03T020 C2003 12 22.92306 01 41 39.61 +20 14 00.3 16.6 N EA007A32 CK03T020 C2003 12 22.92754 01 41 39.69 +20 13 43.7 16.8 N EA007A32 CK03T020 C2003 12 22.93203 01 41 39.78 +20 13 27.3 16.9 N EA007A32 CK03T020 C2003 12 22.93651 01 41 39.93 +20 13 11.4 16.9 N EA007A32 CK03T020 C2003 12 23.13886 01 41 45.06 +20 00 52.3 18.5 T EA007704 CK03T020 C2003 12 23.15202 01 41 45.39 +20 00 06.4 18.6 T EA007704 CK03T020 C2003 12 23.16515 01 41 45.73 +19 59 18.2 18.9 T EA007704 CK03T020 C2003 12 23.18142 01 41 46.05 +19 58 20.9 18.9 T EA007704 CK03T020 C2003 12 23.19447 01 41 46.35 +19 57 32.0 18.4 T EA007704 CK03T020 C2003 12 23.51707 01 41 54.18 +19 38 00.0 EA007D70 CK03T020 C2003 12 23.52009 01 41 54.19 +19 37 49.1 16.5 N EA007D70 CK03T020 C2003 12 23.52672 01 41 54.48 +19 37 20.5 15.9 T EA007367 CK03T020 C2003 12 23.52985 01 41 54.61 +19 37 10.4 16.3 T EA007367 CK03T020 C2003 12 23.53297 01 41 54.61 +19 36 59.6 16.2 T EA007367 CK03T020 C2003 12 23.77389 01 42 00.77 +19 22 31.7 EA007048 CK03T020 C2003 12 23.77721 01 42 01.00 +19 22 18.8 EA007048 CK03T020 C2003 12 23.79123 01 42 01.36 +19 21 28.4 EA007048 CK03T020 C2003 12 23.79441 01 42 01.49 +19 21 17.9 EA007048 CK03T020 C2003 12 23.80626 01 42 01.72 +19 20 37.1 16.3 N EA007J97 CK03T020 C2003 12 23.81489 01 42 02.00 +19 20 05.8 16.3 N EA007J97 CK03T020 C2003 12 23.83095 01 42 02.18 +19 19 05.5 EA007A46 CK03T020 C2003 12 23.83208 01 42 02.21 +19 19 03.4 EA007A46 CK03T020 C2003 12 23.83545 01 42 02.16 +19 18 50.7 EA007A46 CK03T020 C2003 12 23.83657 01 42 02.26 +19 18 46.2 EA007A46 CK03T020 C2003 12 23.83995 01 42 02.45 +19 18 35.2 EA007A46 CK03T020 C2003 12 23.84447 01 42 02.65 +19 18 18.5 EA007A46 CK03T020 C2003 12 23.86623 01 42 03.03 +19 16 59.6 18.1 T EA007215 CK03T020 C2003 12 23.86663 01 42 03.32 +19 17 00.1 18.2 T EA007215 CK03T020 C2003 12 24.07694 01 42 08.89 +19 04 33.4 18.4 T EA007704 CK03T020 C2003 12 24.08984 01 42 09.33 +19 03 49.8 18.4 T EA007704 CK03T020 C2003 12 24.10298 01 42 09.52 +19 03 02.0 18.3 T EA007704 CK03T020 C2003 12 24.11614 01 42 09.78 +19 02 13.3 18.6 T EA007704 CK03T020 C2003 12 24.78302 01 42 27.54 +18 23 14.1 EA007246 CK03T020 C2003 12 24.78373 01 42 27.56 +18 23 11.6 EA007246 CK03T020 C2003 12 24.78560 01 42 27.60 +18 23 05.2 EA007246 CK03T020 C2003 12 24.78625 01 42 27.62 +18 23 02.9 EA007246 CK03T020 C2003 12 24.78808 01 42 27.66 +18 22 56.2 EA007246 CK03T020 C2003 12 24.78900 01 42 27.70 +18 22 53.5 EA007246 CK03T020 C2003 12 24.79022 01 42 27.72 +18 22 49.0 EA007246 CK03T020 C2003 12 24.93951 01 42 31.64 +18 14 10.5 16.8 N EA007213 CK03T020 C2003 12 24.95324 01 42 31.90 +18 13 26.9 16.7 N EA007213 CK03T020 C2003 12 24.95771 01 42 32.00 +18 13 10.0 16.7 N EA007213 CK03T020 C2003 12 25.81151 01 42 56.64 +17 24 45.3 16.4 N EA007J97 CK03T020 C2003 12 25.81929 01 42 56.90 +17 24 23.7 16.4 N EA007J97 CK03T020 C2003 12 25.82529 01 42 56.72 +17 23 57.5 16.4 N EA007J97 CK03T020 C2003 12 25.84501 01 42 57.33 +17 22 54.4 16.7 T EA007939 CK03T020 C2003 12 25.84688 01 42 57.35 +17 22 48.3 16.7 T EA007939 CK03T020 C2003 12 25.85149 01 42 57.42 +17 22 31.8 16.7 T EA007939 CK03T020 C2003 12 27.09482 01 43 34.67 +16 14 33.4 18.7 T EA007704 CK03T020 C2003 12 27.10919 01 43 35.22 +16 13 48.1 19.0 T EA007704 CK03T020 C2003 12 27.12203 01 43 35.52 +16 13 06.6 18.6 T EA007704 CK03T020 C2003 12 27.13486 01 43 35.96 +16 12 26.8 18.4 T EA007704 CK03T020 C2003 12 27.14803 01 43 36.29 +16 11 43.6 18.5 T EA007704 CK03T020 C2003 12 27.79609 01 43 56.49 +15 37 23.7 17.1 N EA007A32 CK03T020 C2003 12 27.82580 01 43 57.39 +15 35 49.6 17.0 N EA007A32 CK03T020 C2003 12 27.85084 01 43 58.32 +15 34 31.5 17.6 N EA007A32 CK03T020 C2003 12 28.06914 01 44 05.39 +15 23 13.0 18.7 T EA007704 CK03T020 C2003 12 28.08253 01 44 05.87 +15 22 32.6 18.7 T EA007704 CK03T020 C2003 12 28.09555 01 44 06.25 +15 21 52.5 18.9 T EA007704 CK03T020 C2003 12 28.10849 01 44 06.64 +15 21 12.2 18.7 T EA007704 CK03T020 C2003 12 28.12144 01 44 07.07 +15 20 32.1 18.6 T EA007704 CK03T020 C2003 12 28.45954 01 44 17.93 +15 03 04.2 16.9 N EA007D70 CK03T020 C2003 12 29.06501 01 44 38.01 +14 32 24.8 18.9 T EA007704 CK03T020 C2003 12 29.06549 01 44 38.03 +14 32 24.2 19.1 T EA007704 CK03T020 C2003 12 29.07824 01 44 38.47 +14 31 46.0 19.2 T EA007704 CK03T020 C2003 12 29.07896 01 44 38.56 +14 31 43.5 19.0 T EA007704 CK03T020 C2003 12 29.09130 01 44 38.94 +14 31 06.2 19.4 T EA007704 CK03T020 C2003 12 29.09215 01 44 38.92 +14 31 05.0 19.1 T EA007704 CK03T020 C2003 12 29.10440 01 44 39.31 +14 30 27.5 19.3 T EA007704 CK03T020 C2003 12 29.10509 01 44 39.34 +14 30 27.1 19.0 T EA007704 CK03T020 C2003 12 29.11806 01 44 39.78 +14 29 48.7 18.9 T EA007704 CK03T020 C2003 12 29.11817 01 44 39.80 +14 29 46.5 18.8 T EA007704 CK03T020 C2003 12 30.12112 01 45 13.88 +13 40 22.5 18.1 N EA007H36 CK03T020 C2003 12 30.12409 01 45 14.01 +13 40 14.9 18.0 N EA007H36 Observer details: 048 Hradec Kralove. Observer M. Lehky. 0.40-m f/5 reflector + CCD. 213 Observatorio Montcabre. Observer R. Naves. Measurer M. Campas. 0.30-m f/5.5 Schmidt-Cassegrain. 215 Buchloe. Observer W. Hasubick. 0.44-m f/4.6 reflector + CCD. 246 Klet Observatory-KLENOT. Observers J. Ticha, M. Tichy. 1.06-m KLENOT Telescope + CCD. 333 Desert Eagle Observatory. Observer W. K. Y. Yeung. 0.45-m reflector + CCD. 349 Ageo. Observer K. Kadota. 0.25-m f/5.0 reflector + CCD. 367 Yatsuka. Observer H. Abe. 0.26-m f/6 reflector + CCD. 704 Lincoln Laboratory ETS, New Mexico. Observers M. Blythe, F. Shelly, M. Bezpalko, R. Huber, L. Manguso, D. Torres, R. Kracke, M. McCleary, H. Stange, A. Milner. Measurers J. Stuart, R. Sayer, J. Evans, J. Kommers. 1.0-m f/2.15 reflector + CCD. 750 Hobbs Observatory, Fall Creek. Observer R. Elliott. 0.3-m f/10 Schmidt Cassegrain + CCD. 939 Observatorio Rodeno. Observer J. Castellano. 0.20-m f/10 Schmidt-Cassegrain + CCD. 945 Observatorio Monte Deva. Observer J. R. Vidal. 0.36-m f/3.3 Schmidt-Cassegrain + CCD. A18 Herne. Observer B. Brinkmann. 0.2-m f/5.8 Schmidt-Cassegrain + CCD. A32 Panker. Observer H. Denzau. 0.36-m f/5.5 Schmidt-Cassegrain + CCD. A46 Lelekovice. Observer K. Hornoch. 0.35-m f/4.7 reflector + CCD. D70 Tosa. Observer S. Shimomoto. 0.20-m f/6.3 Schmidt-Cassegrain + CCD. H36 Sandlot Observatory, Scranton. Observer G. Hug. 0.3-m Schmidt-Cassegrain + CCD. H41 Petit Jean Mountain. Observer P. C. Sherrod. 0.41-m f/3.7 Schmidt-Cassegrain + CCD. H72 Evelyn L. Egan Observatory, Fort Myers. Observers M. Fauerbach, M. Mon. 0.40-m f/5.3 reflector + CCD. J97 Alginet. Observer T. Climent G. 0.25-m f/4 Schmidt-Cassegrain + CCD. Orbital elements: C/2003 T2 (LINEAR) Epoch 2003 Nov. 17.0 TT = JDT 2452960.5 T 2003 Nov. 14.03057 TT MPC q 1.7863912 (2000.0) P Q z +0.0000440 Peri. 152.23434 +0.47901891 +0.21070698 +/-0.0000244 Node 238.53188 +0.49770845 +0.73444569 e 0.9999215 Incl. 87.53339 +0.72306790 -0.64512952 Residuals in seconds of arc 031013 704 0.2- 0.3+ 031116 704 0.9+ 0.6- 031212 J97 1.6+ 2.0+ 031013 704 0.5- 1.1+ 031116 704 0.4+ 0.9- 031212 939 0.9- 0.2+ 031013 704 0.3+ 0.3+ 031116 355 0.4+ 0.5- 031212 939 0.2+ 0.3+ 031013 704 0.7- 0.1+ 031116 355 0.3- 0.4- 031212 J97 0.4+ 1.4+ 031013 704 1.5- 1.0+ 031116 355 0.1+ 0.9- 031212 939 0.0 0.1+ 031013 198 0.3- 1.5+ 031116 360 0.0 0.2+ 031213 349 0.1- 0.8+ 031013 198 0.1+ 1.1+ 031116 360 0.1+ 0.3+ 031213 349 0.3- 0.9- 031014 198 0.8+ 0.4+ 031117 900 0.1- 1.1- 031213 349 0.1+ 0.9+ 031014 198 0.4+ 0.2+ 031117 900 0.2- 0.4- 031213 349 0.6+ 0.7- 031014 651 0.1+ 0.1- 031117 349 0.4+ 0.2+ 031213 D70 0.6- 0.2+ 031014 651 0.1- 0.2- 031117 349 0.0 0.4+ 031213 D70 (0.2- 2.4-) 031014 651 0.2+ 0.4- 031117 349 0.2+ 0.0 031213 J87 1.0- 1.4- 031014 651 0.1- 0.2- 031117 349 0.2+ 0.0 031213 J87 0.7- 1.1- 031014 G90 0.3+ 0.3- 031118 458 (2.1- 3.3-) 031213 J87 0.2- 1.2- 031014 G90 0.0 1.0- 031118 458 (3.7- 4.4-) 031213 939 0.4- 0.3- 031014 G90 0.0 0.9- 031118 458 (2.1- 0.7-) 031213 939 0.3- 0.2- 031014 704 0.4- 0.4- 031118 213 0.4- 0.8+ 031213 939 0.7- 0.3- 031014 704 0.3- 1.0+ 031118 213 0.2+ 0.2+ 031214 349 0.3+ 0.5- 031014 704 0.3+ 0.0 031118 213 0.1+ 0.9+ 031214 349 0.1+ 0.3- 031014 926 0.4+ 0.3- 031119 H41 0.3+ 0.2+ 031214 349 0.1- 0.0 031014 926 0.5+ 0.2- 031119 H41 0.4+ 1.1+ 031214 349 0.5- 0.8+ 031014 926 0.3+ 0.0 031119 H41 0.1- 0.6+ 031214 360 0.4- 0.6- 031014 704 0.9+ 0.7+ 031119 H41 0.3+ 0.1- 031214 360 0.6- 1.1- 031014 704 0.5- 1.2+ 031119 H41 0.3- 0.1+ 031214 360 0.7- 0.7- 031014 198 0.5+ 0.1- 031119 204 0.5- 0.2+ 031214 D70 (0.5- 2.9-) 031014 198 0.5+ 0.0 031119 204 0.3+ 0.6+ 031214 D70 0.4+ 0.2- 031014 198 0.7+ 0.5+ 031119 204 0.1+ 0.5+ 031214 D70 0.6+ 1.3- 031014 636 0.1- 0.0 031119 204 0.3- 0.4+ 031214 J97 1.9- 1.3- 031014 636 0.1+ 0.4- 031119 204 0.1- 0.8+ 031215 H41 0.3- 0.0 031014 636 0.1+ 0.9- 031120 H41 0.2+ 0.0 031215 H41 0.6+ 1.2- 031014 636 0.3+ 0.3+ 031120 H41 0.6+ 0.3- 031215 H41 0.3+ 0.3- 031015 704 0.1- 0.7+ 031120 H41 0.4- 0.3- 031215 H41 0.2- 1.0- 031015 704 0.0 0.1+ 031120 H41 0.0 0.3+ 031216 945 0.2+ 1.2+ 031015 704 1.4+ 1.0+ 031120 H41 0.1+ 0.0 031216 945 0.4+ 0.7+ 031015 704 0.1- 1.1+ 031120 104 0.4- 0.4- 031216 945 0.7+ 1.6+ 031015 704 0.7- 1.8+ 031120 104 0.4- 0.0 031217 H41 0.7- 0.5- 031015 235 0.9- 1.2- 031120 104 1.2- 0.7- 031217 H41 1.6+ 0.0 031016 704 0.5+ 1.0- 031120 104 0.0 0.0 031217 H41 0.2+ 0.4- 031016 704 0.2- 0.7+ 031121 H41 0.2- 0.6- 031217 H41 0.8- 0.6- 031016 704 (0.2+ 2.3+) 031121 H41 0.2- 0.2+ 031217 H41 0.2- 1.8- 031016 704 0.3- 1.4+ 031121 H41 0.7- 0.6- 031218 704 (1.7+ 2.5+) 031016 704 0.2- 0.8+ 031122 H41 0.5- 0.5- 031218 704 (0.4+ 2.1+) 031016 349 0.5- 0.1- 031122 H41 0.3+ 1.4- 031218 704 (1.7+ 3.1+) 031016 349 0.1- 0.3+ 031122 H41 0.1+ 0.2- 031218 704 (3.3+ 5.6+) 031016 349 0.7- 0.1- 031122 H41 0.5+ 1.8+ 031218 704 (2.9+ 5.1+) 031016 349 0.8- 0.3+ 031122 D70 0.3+ 0.8- 031218 H41 0.5- 1.0+ 031017 704 0.2- 0.8+ 031122 D70 0.4- 0.1- 031218 H41 1.5- 0.0 031017 704 0.4- 0.5+ 031122 D70 0.7- 1.2- 031218 H41 (2.4- 0.9-) 031017 704 0.6- 0.2- 031123 340 0.3- 0.2+ 031218 A18 0.9- 0.5- 031017 704 (0.5- 3.1+) 031123 340 0.9+ 0.2- 031218 H72 1.3- 0.2- 031017 704 0.8- 1.0+ 031123 340 0.6- 0.4- 031218 H72 0.2+ 0.6+ 031017 372 0.8+ 1.2- Y 031123 900 0.8- 1.0- 031218 H72 1.7+ 0.6+ 031018 A18 1.6- 0.7- 031123 900 0.3- 0.2- 031219 A32 0.5+ 1.4+ 031018 349 0.2- 0.7- 031124 213 (2.6+ 0.1+) 031219 A32 0.3+ 0.2+ 031018 349 0.4- 0.3+ 031124 213 1.0+ 0.8+ 031219 A32 0.1+ 0.2+ 031018 349 0.6- 0.8+ 031127 H72 (2.7+ 0.2-) 031219 A32 0.3+ 0.1+ 031018 349 0.4+ 0.5+ 031127 H72 1.7+ 1.2+ 031219 H41 0.6- 0.1+ 031019 372 0.6- 1.0- Y 031127 H72 0.7+ 1.6+ 031219 H41 0.7- 0.6+ 031020 785 1.0+ 0.3+ 031128 A32 0.1- 0.1+ 031219 H41 0.8- 1.0+ 031020 785 0.5+ 1.0+ 031128 A32 0.1- 0.3+ 031219 H41 0.1- 0.3+ 031023 349 0.4+ 0.2- 031128 A32 0.0 0.2+ 031219 H41 0.9- 1.1+ 031023 349 1.4+ 0.2- 031128 A32 0.1+ 0.6+ 031220 H72 1.9- 0.2+ 031023 349 0.7+ 0.7- 031129 H41 0.7- 0.2- 031220 H72 0.1+ 1.8- 031023 360 0.2- 0.2- 031129 H41 0.7- 0.3+ 031220 H72 1.7- 1.2- 031023 360 0.2+ 0.5+ 031129 H41 0.6+ 0.4+ 031220 H72 0.6+ 0.3+ 031023 360 0.1+ 0.1+ 031129 130 0.7- 0.2- 031220 750 1.2+ 0.2- 031024 A46 1.6+ 0.5+ 031129 130 0.1- 0.2- 031220 750 0.3- 0.4- 031024 A46 1.0+ 0.0 031129 130 0.4- 0.0 031220 750 0.5- 0.7- 031024 A46 0.1+ 0.5- 031129 130 0.1- 0.3- 031221 349 0.1+ 0.3+ 031024 A46 0.4- 0.3+ 031129 A46 0.5- 0.5+ 031221 349 0.6+ 0.1+ 031024 A46 0.9- 0.7+ 031129 A46 0.2- 0.2+ 031222 333 0.1- 0.8- 031024 A46 1.4- 0.6+ 031129 A46 0.9- 0.8+ 031222 333 0.3+ 0.4- 031028 372 0.3+ 0.7- Y 031129 A46 0.8- 0.0 031222 333 0.4- 0.9- 031029 H41 0.3+ 0.6- 031129 A46 0.3- 0.6+ 031222 A32 0.4+ 0.4+ 031029 H41 1.2+ 0.8+ 031129 A46 0.5- 0.0 031222 A32 0.0 0.0 031029 H41 0.1+ 0.6- 031130 H72 0.5+ 0.4+ 031222 A32 0.3- 0.1- 031030 360 0.8+ 0.0 031130 H72 0.1+ 0.9- 031222 A32 0.4- 0.1+ 031030 360 0.7+ 0.0 031130 H72 0.1+ 0.3+ 031222 A32 0.2+ 0.7+ 031030 360 1.2+ 0.3+ 031130 H72 0.7+ 0.0 031223 704 0.7+ 0.6+ 031101 H41 1.2+ 0.8+ 031130 H72 1.4+ 0.6- 031223 704 (1.4+ 2.9+) 031101 H41 1.2+ 0.3- 031130 H41 0.5- 0.8+ 031223 704 (2.1+ 2.7+) 031101 355 0.6- 0.8- 031130 H41 0.3+ 0.6- 031223 704 (1.6+ 4.9+) 031101 355 0.7- 0.2- 031130 H41 0.1+ 1.1- 031223 704 (1.8+ 3.7+) 031101 355 0.1- 0.6- 031130 H41 0.5- 0.6- 031223 D70 (1.1- 2.8+) 031101 442 0.4+ 0.9+ 031201 D70 1.0- 1.2- 031223 D70 (1.9- 2.9+) 031102 442 0.2+ 1.2+ 031204 704 0.9+ 0.3- 031223 367 0.0 1.5- 031102 442 0.4+ 1.0+ 031204 704 (2.6- 2.8-) 031223 367 0.8+ 0.3- 031102 H41 0.8+ 0.6+ 031204 704 1.3+ 1.6+ 031223 367 0.2- 0.2+ 031102 H41 0.3+ 0.3- 031204 704 0.8+ 0.3+ 031223 048 (2.5- 0.2+) 031102 H41 0.2+ 1.2+ 031204 704 1.7+ 1.9+ 031223 048 0.4- 0.8- 031102 H41 0.3+ 0.4+ 031204 340 0.2+ 0.9- 031223 048 0.1+ 0.9- 031102 104 (2.6+ 2.2+) 031204 340 0.8+ 0.3+ 031223 048 0.8+ 0.1- 031102 104 (2.7+ 0.3+) 031204 340 0.4+ 0.0 031223 J97 1.3- 0.3+ 031102 104 (2.7+ 1.9+) 031204 340 0.6+ 0.2+ 031223 J97 0.1- 0.2- 031102 104 (2.8+ 0.4-) 031206 349 1.2- 1.0- 031223 A46 1.5- 1.7- 031103 H41 0.5+ 0.1- 031206 349 1.2- 1.4- 031223 A46 1.4- 0.2+ 031103 H41 1.2+ 0.2+ 031206 213 0.2- 0.4+ 031223 A46 (3.3- 0.4-) 031103 H41 0.3- 0.1+ 031206 213 0.2+ 0.2+ 031223 A46 (2.2- 0.9-) 031103 H41 1.1+ 0.1+ 031206 213 0.9+ 0.3+ 031223 A46 0.7- 0.2+ 031104 H41 0.8+ 1.2- 031206 A32 1.3+ 0.4- 031223 A46 0.7+ 0.3- 031104 H41 0.8+ 0.8- 031206 A32 1.3+ 0.4+ 031223 215 1.7- 1.6- 031104 H41 0.8+ 0.1+ 031206 A32 0.9+ 0.1+ 031223 215 (2.3+ 0.4+) 031104 H41 0.8+ 0.2+ 031206 A32 0.8+ 0.7+ 031224 704 0.3+ 0.5+ 031104 340 (2.1- 2.0+) 031206 176 0.7- 1.1- 031224 704 (2.3+ 2.7+) 031104 340 0.1+ 1.0+ 031206 176 0.5- 0.8- 031224 704 0.7+ 1.5+ 031104 340 (0.8- 2.1+) 031206 176 0.1+ 0.2- 031224 704 0.0 0.6- 031104 340 0.6+ 1.3- 031207 H41 (2.7+ 1.5-) 031224 246 0.3- 0.1+ 031104 A46 0.5- 0.4+ 031207 H41 0.2+ 0.9+ 031224 246 0.2- 0.1+ 031104 A46 0.4- 0.7- 031207 H41 (0.4+ 6.7+) 031224 246 0.3- 0.2+ 031104 A46 0.7- 0.5+ 031207 H41 0.8+ 1.0+ 031224 246 0.3- 0.1+ 031104 A46 0.4+ 0.2- 031207 H41 0.8+ 1.8+ 031224 246 0.4- 0.2- 031104 A46 (2.2+ 0.8-) 031207 048 0.3- 1.9- 031224 246 0.1- 0.3+ 031104 A46 0.3- 0.4- 031207 048 0.1- 1.0- 031224 246 0.3- 0.0 031106 704 (4.9+ 5.8-) 031207 048 1.0+ 0.3- 031224 213 (1.0+ 2.4-) 031106 704 1.0- 0.4- 031207 048 0.6- 1.2- 031224 213 0.4- 1.5+ 031106 704 2.0- 1.8- 031207 048 0.5- 0.9- 031224 213 0.6- 0.1+ 031106 704 (2.3- 1.3-) 031207 A18 0.3- 1.6- 031225 J97 (3.3+ 1.6-) 031108 H41 1.2+ 0.1+ 031207 A18 0.4- 0.5- 031225 J97 (4.1+ 2.9+) 031108 H41 (2.9+ 2.4+) 031209 A46 0.9+ 1.0- 031225 J97 (0.8- 3.2-) 031108 H41 0.3+ 1.3+ 031209 A46 (0.2- 2.6-) 031225 939 0.5+ 0.1- 031108 H41 0.7+ 0.7+ 031209 A46 0.1- 0.8- 031225 939 0.1+ 0.1+ 031108 H41 0.8+ 0.8+ 031209 A46 0.9- 0.9- 031225 939 0.7- 1.0- 031110 785 0.9+ 1.6- 031209 A46 1.1- 0.4- 031227 704 0.1- 0.1+ 031110 785 0.6- 0.6+ 031209 A46 0.6- 0.1+ 031227 704 2.0+ 1.0+ 031110 104 0.3- 0.8- 031209 A32 1.7+ 0.3+ 031227 704 1.1+ 0.8+ 031110 104 0.2- 0.3- 031209 A32 1.1+ 0.6+ 031227 704 (2.2+ 2.2+) 031110 104 0.1- 0.0 031209 A32 0.7+ 0.6+ 031227 704 1.6+ 1.3+ 031110 104 0.3- 0.2+ 031209 A32 0.5+ 0.3+ 031227 A32 0.7- 0.6+ 031111 945 0.1+ 1.1- 031210 900 1.0- 0.8+ 031227 A32 0.6- 0.2- 031111 945 (1.9+ 3.4-) 031210 900 (0.6+ 3.3+) 031227 A32 2.0+ 0.3+ 031111 945 0.7- 0.8- 031210 213 0.1- 0.4- 031228 704 0.2+ 1.2+ 031112 H41 (1.8+ 2.6+) 031210 213 0.0 0.2+ 031228 704 (1.4+ 2.4+) 031112 H41 (1.7+ 2.3+) 031210 213 0.2- 0.5- 031228 704 (1.3+ 2.8+) 031112 H41 1.2+ 1.1+ 031210 A32 0.0 0.0 031228 704 (1.4+ 2.7+) 031113 340 0.8+ 0.7+ 031210 A32 0.8+ 0.7+ 031228 704 (2.1+ 2.8+) 031113 340 0.1+ 0.7+ 031210 A32 0.7- 0.4+ 031228 D70 0.8+ 1.0- 031113 340 0.3+ 0.2- 031210 A32 0.2+ 0.3- 031229 704 0.7- 0.2- 031113 340 0.8- 0.6- 031212 850 (0.1+ 3.0-) 031229 704 0.6- 0.6+ 031113 349 0.0 0.7- 031212 850 0.7+ 0.2+ 031229 704 0.1+ 0.7+ 031113 349 0.4+ 0.6- 031212 850 0.4+ 0.4- 031229 704 1.0+ 0.4+ 031113 349 0.1- 0.1+ 031212 H41 0.7+ 1.9+ 031229 704 1.0+ 0.2+ 031113 349 0.3- 0.5- 031212 H41 1.1- 1.3+ 031229 704 0.3+ 1.5+ 031114 213 0.3+ 1.4- 031212 H41 1.2- 1.1+ 031229 704 0.5+ 0.8+ 031114 213 0.1+ 0.7+ 031212 H41 1.9- 0.7+ 031229 704 (0.6+ 2.5+) 031114 213 0.8+ 0.6+ 031212 349 0.4+ 0.7+ 031229 704 (1.1+ 3.1+) 031114 442 (0.2+ 3.0+) 031212 349 0.6- 0.7- 031229 704 1.4+ 1.2+ 031114 442 (0.7+ 4.6+) 031212 349 0.6+ 1.2- 031230 H36 0.8- 1.5- 031114 442 (0.7+ 3.2+) 031212 349 0.1- 0.9+ 031230 H36 0.3- 0.5- 031116 704 0.6+ 0.9- 031212 235 1.5- 0.2+ The "original" and "future" barycentric values of 1/a are -0.000065 and +0.000653 (+/- 0.000024) AU**-1, respectively. Brian G. Marsden (C) Copyright 2004 MPC M.P.E.C. 2004-A07
